Rbgn^[z[y[W
メイン
   新天体発見情報
     Comet P/2018 P3 (PANSTARRS)
投稿するにはまず登録を

スレッド表示 | 新しいものから 前のトピック | 次のトピック | 下へ
投稿者 スレッド
佐藤裕久
投稿日時: 2018-8-22 21:59
モデレータ
登録日: 2005-6-12
居住地: 日本
投稿: 2444
オンライン
Comet P/2018 P3 (PANSTARRS)

R. Weryk, R. WainscoatとY. Ramanjoolooの通報によると、8月8日UT、Haleakala にある1.8-m 
Pan-STARRS1 Ritchey-Chretien望遠鏡で得た4枚の45秒w-バンドCCD露出から他の彗星を発見した。
この彗星の頭部はFWHM(半値全幅)はシーイング1".05で約1".3に見えた。そして、p.a. 255°に
向かって約6"の尾が伸びている。
Wainscoatは、8月10.55日、D. Woodworthが得た40秒w-バンドフォローアップ露出から、FWHMは
0".75のシーイングで約1".05だった。そして、およそ10"わずかに南から西に伸びている幅広い、
低表面輝度の尾を示していると加えた。測定にはM. Micheliが補助した。

発見位置は次のとおり、

     2018 UT             R.A. (2000) Decl.       Mag.
     Aug.  8.54438    0 14 07.67   -17 14 22.5   21.0
           8.55556    0 14 07.99   -17 14 24.6   20.9
           8.56676    0 14 08.31   -17 14 26.7   20.8
           8.57793    0 14 08.63   -17 14 28.8   20.8

暫定楕円軌道要素と位置推算表は次のとおり、

Orbital elements:
    P/2018 P3 (PANSTARRS)
Epoch 2018 Oct. 9.0 TT = JDT 2458400.5
T 2018 Oct.  9.17341 TT                                 MPCW
q   1.7584133            (2000.0)            P               Q
n   0.18817644     Peri.  305.64225     +0.98784415     -0.08005280
a   3.0159621      Node    59.29738     +0.13369662     +0.87485504
e   0.4169644      Incl.    8.91519     -0.07930411     +0.47772398
P   5.24
From 22 observations 2018 Aug. 8-17, mean residual 0".4.

    P/2018 P3 (PANSTARRS)
Epoch 2024 Jan. 11.0 TT = JDT 2460320.5
T 2024 Jan. 3.87192 TT                                  MPCW
q   1.7526383            (2000.0)            P               Q
n   0.18846410     Peri.  305.76939     +0.98773478     -0.08136879
a   3.0128924      Node    59.24725     +0.13488181     +0.87459526
e   0.4182871      Incl.    8.92079     -0.07865690     +0.47797725
P   5.23
From 22 observations 2018 Aug. 8-17, mean residual 0".4.

    P/2018 P3 (PANSTARRS)
Epoch 2018 Mar. 23.0 TT = JDT 2458200.5
T 2018 Oct.  9.16420 TT                                 MPCW
q   1.7584844            (2000.0)            P               Q
n   0.18820878     Peri.  305.63483     +0.98785374     -0.07993260
a   3.0156166      Node    59.29782     +0.13359065     +0.87487161
e   0.4168740      Incl.    8.91522     -0.07936330     +0.47771377
P   5.24
From 22 observations 2018 Aug. 8-17, mean residual 0".4.

Ephemeris:
    P/2018 P3 (PANSTARRS)
Date    TT    R. A. (2000) Decl.     Delta      r     Elong.  Phase   m1
2018 07 19    23 56 47.4 -16 36 19   1.1348  1.8847   122.3    27.1  20.5
...
2018 08 03    00 10 37.3 -16 58 41   0.9999  1.8446   132.6    23.9  20.2
...
2018 08 11    00 15 21.7 -17 22 13   0.9391  1.8259   138.4    21.6  20.0
...
2018 08 17    00 17 31.7 -17 43 36   0.8992  1.8133   143.0    19.6  19.9
2018 08 18    00 17 46.1 -17 47 21   0.8931  1.8113   143.8    19.3  19.8
2018 08 19    00 17 58.5 -17 51 08   0.8871  1.8093   144.5    18.9  19.8
...
2018 08 25    00 18 29.5 -18 13 57   0.8544  1.7983   149.1    16.8  19.7
...
2018 09 02    00 17 17.6 -18 41 54   0.8199  1.7856   154.8    13.9  19.6
...
2018 09 17    00 10 13.7 -19 06 55   0.7859  1.7682   161.5    10.4  19.5

(CBET 4548、MPEC 2018-Q34)

スレッド表示 | 新しいものから 前のトピック | 次のトピック | トップ

投稿するにはまず登録を
 
© 1999 Tsutomu Seki.